DESBT EGHQ-EGHQ

Flight info

Callsign DESBT
Flight time 0h 4m
Altitude 5000
Route LND DCT CUL DCT NQY
Aircraft PA24/L-SDGRY/S

Departure

Time 2026-05-09 19:19
Airport Cornwall Airport Newquay (EGHQ)

Arrival

Time 2026-05-09 19:23
Airport Cornwall Airport Newquay (EGHQ)
Time Latitude Longitude Altitude Speed Heading
2026-05-09 19:07 50.44173 -5.00908 320 ft 0 kts 159°
2026-05-09 19:11 50.44173 -5.00909 320 ft 0 kts 159°
2026-05-09 19:11 50.44174 -5.00909 320 ft 0 kts 159°
2026-05-09 19:12 50.44174 -5.00900 320 ft 2 kts 26°
2026-05-09 19:13 50.44203 -5.00926 319 ft 9 kts 336°
2026-05-09 19:13 50.44238 -5.00903 319 ft 5 kts 65°
2026-05-09 19:13 50.44250 -5.00859 320 ft 5 kts 66°
2026-05-09 19:13 50.44272 -5.00776 321 ft 10 kts 67°
2026-05-09 19:14 50.44297 -5.00681 322 ft 11 kts 67°
2026-05-09 19:14 50.44320 -5.00573 324 ft 10 kts 98°
2026-05-09 19:14 50.44282 -5.00486 326 ft 11 kts 129°
2026-05-09 19:14 50.44221 -5.00367 329 ft 17 kts 128°
2026-05-09 19:15 50.44140 -5.00230 333 ft 16 kts 130°
2026-05-09 19:15 50.44086 -5.00100 337 ft 13 kts 119°
2026-05-09 19:15 50.44032 -4.99956 340 ft 17 kts 120°
2026-05-09 19:15 50.43972 -4.99801 344 ft 17 kts 120°
2026-05-09 19:16 50.43910 -4.99638 350 ft 16 kts 120°
2026-05-09 19:16 50.43862 -4.99508 351 ft 12 kts 120°
2026-05-09 19:16 50.43830 -4.99416 358 ft 8 kts 116°
2026-05-09 19:16 50.43826 -4.99405 356 ft 0 kts 111°
2026-05-09 19:17 50.43826 -4.99406 356 ft 0 kts 111°
2026-05-09 19:17 50.43838 -4.99379 357 ft 8 kts 16°
2026-05-09 19:17 50.43901 -4.99372 353 ft 9 kts
2026-05-09 19:18 50.43977 -4.99366 352 ft 12 kts
2026-05-09 19:18 50.44035 -4.99423 350 ft 13 kts 301°
2026-05-09 19:18 50.44164 -4.99764 339 ft 62 kts 301°
2026-05-09 19:18 50.44400 -5.00442 482 ft 74 kts 305°
2026-05-09 19:19 50.44654 -5.01158 715 ft 77 kts 316°
2026-05-09 19:19 50.44813 -5.02051 896 ft 102 kts 275°
2026-05-09 19:19 50.44349 -5.02968 1047 ft 119 kts 201°
2026-05-09 19:19 50.43571 -5.02994 1194 ft 108 kts 146°
2026-05-09 19:20 50.43023 -5.02289 1283 ft 102 kts 120°
2026-05-09 19:20 50.42556 -5.01460 1399 ft 103 kts 116°
2026-05-09 19:20 50.42084 -5.00595 1439 ft 106 kts 115°
2026-05-09 19:20 50.41653 -4.99683 1560 ft 103 kts 112°
2026-05-09 19:21 50.41221 -4.98767 1644 ft 106 kts 114°
2026-05-09 19:21 50.40752 -4.97835 1670 ft 111 kts 114°
2026-05-09 19:21 50.40536 -4.96777 1701 ft 99 kts 79°
2026-05-09 19:21 50.40768 -4.95791 1625 ft 96 kts 53°
2026-05-09 19:22 50.41275 -4.95112 1539 ft 98 kts 34°
2026-05-09 19:22 50.41950 -4.94898 1370 ft 105 kts 358°
2026-05-09 19:22 50.42548 -4.95586 1088 ft 111 kts 323°
2026-05-09 19:22 50.42934 -4.96525 785 ft 95 kts 310°
2026-05-09 19:23 50.43254 -4.97375 596 ft 90 kts 310°
2026-05-09 19:23 50.43574 -4.98206 424 ft 86 kts 307°
2026-05-09 19:23 50.43857 -4.98945 363 ft 65 kts 310°
2026-05-09 19:23 50.44022 -4.99385 355 ft 37 kts 298°
2026-05-09 19:24 50.44195 -4.99845 347 ft 68 kts 296°
2026-05-09 19:24 50.44448 -5.00535 533 ft 76 kts 310°
2026-05-09 19:24 50.44713 -5.01248 782 ft 74 kts 322°
2026-05-09 19:24 50.44800 -5.02124 960 ft 96 kts 260°
2026-05-09 19:25 50.44279 -5.02871 1066 ft 114 kts 187°
2026-05-09 19:25 50.43529 -5.02662 1135 ft 112 kts 140°
2026-05-09 19:25 50.42874 -5.02032 1222 ft 110 kts 135°
2026-05-09 19:25 50.42256 -5.01345 1326 ft 110 kts 129°
2026-05-09 19:26 50.41671 -5.00592 1412 ft 106 kts 124°
2026-05-09 19:26 50.41158 -4.99819 1572 ft 98 kts 120°
2026-05-09 19:26 50.40721 -4.99065 1800 ft 88 kts 107°
2026-05-09 19:26 50.40539 -4.98146 1844 ft 92 kts 84°
2026-05-09 19:27 50.40591 -4.97096 1791 ft 100 kts 73°
2026-05-09 19:27 50.40786 -4.96091 1706 ft 91 kts 54°
2026-05-09 19:27 50.41329 -4.95548 1427 ft 96 kts 20°
2026-05-09 19:27 50.41982 -4.95609 1315 ft 95 kts 356°
2026-05-09 19:28 50.42563 -4.96028 1003 ft 91 kts 337°
2026-05-09 19:28 50.42992 -4.96743 742 ft 87 kts 319°
2026-05-09 19:28 50.43300 -4.97498 544 ft 80 kts 312°
2026-05-09 19:28 50.43598 -4.98268 405 ft 81 kts 307°
2026-05-09 19:29 50.43851 -4.98938 364 ft 59 kts 311°
2026-05-09 19:29 50.44032 -4.99414 351 ft 51 kts 307°
2026-05-09 19:29 50.44262 -5.00046 438 ft 73 kts 299°
2026-05-09 19:29 50.44519 -5.00762 651 ft 75 kts 311°
2026-05-09 19:30 50.44746 -5.01514 835 ft 82 kts 298°
2026-05-09 19:30 50.44649 -5.02460 1029 ft 101 kts 241°
2026-05-09 19:30 50.44075 -5.03127 1159 ft 110 kts 184°
2026-05-09 19:30 50.43387 -5.02871 1282 ft 98 kts 122°
2026-05-09 19:31 50.42921 -5.02077 1326 ft 102 kts 117°
2026-05-09 19:31 50.42475 -5.01235 1406 ft 97 kts 114°
2026-05-09 19:31 50.42067 -5.00425 1358 ft 88 kts 105°
2026-05-09 19:31 50.41835 -4.99619 1371 ft 88 kts 95°
2026-05-09 19:32 50.41689 -4.98646 1349 ft 88 kts 85°
2026-05-09 19:32 50.41694 -4.97737 1319 ft 83 kts 78°
2026-05-09 19:32 50.41749 -4.96819 1287 ft 86 kts 73°
2026-05-09 19:32 50.41996 -4.96044 1253 ft 78 kts 37°
2026-05-09 19:33 50.42551 -4.96009 935 ft 92 kts 341°
2026-05-09 19:33 50.42993 -4.96694 680 ft 87 kts 310°
2026-05-09 19:33 50.43290 -4.97468 555 ft 80 kts 306°
2026-05-09 19:33 50.43577 -4.98221 424 ft 78 kts 310°
2026-05-09 19:34 50.43828 -4.98877 365 ft 58 kts 301°
2026-05-09 19:34 50.43982 -4.99281 355 ft 36 kts 301°
2026-05-09 19:34 50.44040 -4.99471 349 ft 8 kts 261°
2026-05-09 19:34 50.43993 -4.99504 351 ft 8 kts 183°
2026-05-09 19:35 50.43949 -4.99507 350 ft 6 kts 182°
2026-05-09 19:35 50.43897 -4.99511 351 ft 13 kts 182°
2026-05-09 19:35 50.43787 -4.99520 352 ft 10 kts 150°
2026-05-09 19:35 50.43778 -4.99434 354 ft 6 kts 112°
2026-05-09 19:36 50.43776 -4.99426 359 ft 0 kts 116°
2026-05-09 19:36 50.43776 -4.99427 354 ft 0 kts 116°